User: anonymous   Login
Location: Unspecified
(0.0000°N, 0.0000°E)
Time: 14:52:55
(UTC+00:00)
Language:

COSMOS 2509 - Orbit

View from above orbital plane
View from above orbital plane
View from above satellite
View from above satellite

Ground track
Ground track

The orbit data is extracted from the following two-line orbital elements,

1 40922U 15050C   21333.80484377  .00000020  00000-0  69889-4 0  9997
2 40922  82.4926  32.5362 0016659  60.4564 299.8174 12.42891045280616
Epoch (UTC): 29 November 2021 19:18:58
Eccentricity: 0.0016659
inclination: 82.4926°
perigee height: 1481 km
apogee height: 1507 km
right ascension of ascending node: 32.5362°
argument of perigee: 60.4564°
revolutions per day: 12.42891045
mean anomaly at epoch: 299.8174°
orbit number at epoch: 28061

The dashed part of the orbit path shows where the satellite is in the earth's shadow,  

DLR